P/2013 N3 ( PanSTARRS )

Japanese version
Home page
Updated on April 29, 2014

---------------------------------------------------------------------

* Profile

Discovery Date July 4, 2013
Magnitude 20.7 mag
Discoverer Pan-STARRS 1 telescope (Haleakala)

* Pictures

* Orbital Elements

Epoch 2014 Jan. 23.0 TT = JDT 2456680.5
T 2014 Feb. 11.78791 TT                                 MPC
q   3.0288803            (2000.0)            P               Q
n   0.04869727     Peri.  323.95639     +0.94892127     +0.31530334
a   7.4267641      Node    17.67511     -0.27989009     +0.85804738
e   0.5921669      Incl.    2.17052     -0.14563642     +0.40538686
P  20.2
From 44 observations 2013 July 4-Nov. 23, mean residual 0".3.

* Magnitudes Graph

        m1 = 12.5 + 5 log d + 10.0 log r

---------------------------------------------------------------------

The orbital elements are published on M.P.E.C. 2013-W13.
The magnitudes graphs are made with Comet for Windows.

---------------------------------------------------------------------

Copyright(C) Seiichi Yoshida (comet@aerith.net). All rights reserved.